User: anonymous   Login
Location: Unspecified
(0.0000°N, 0.0000°E)
Time: 11:17:50
(UTC+00:00)
Language:

COSMOS 2497 - Orbit

View from above orbital plane
View from above orbital plane
View from above satellite
View from above satellite

Ground track
Ground track

The orbit data is extracted from the following two-line orbital elements,

1 39762U 14028B   19081.70540266 +.00000004 +00000-0 -43961-4 0  9993
2 39762 082.4530 325.2234 0021382 069.8417 290.4968 12.42893563219196
Epoch (UTC): 22 March 2019 16:55:46
Eccentricity: 0.0021382
inclination: 82.4530°
perigee height: 1477 km
apogee height: 1511 km
right ascension of ascending node: 325.2234°
argument of perigee: 69.8417°
revolutions per day: 12.42893563
mean anomaly at epoch: 290.4968°
orbit number at epoch: 21919

The dashed part of the orbit path shows where the satellite is in the earth's shadow,  

DLR